User: anonymous   Login
Location: Luz Observatory
(34.5000°N, 117.2833°W)
Time: 04:51:02
(UTC-08:00)
Language:

Cosmos 1452 Rocket - Orbit

View from above orbital plane
View from above orbital plane
View from above satellite
View from above satellite

Ground track
Ground track

The orbit data is extracted from the following two-line orbital elements,

1 13992U 83031B   18016.92217049 +.00000018 +00000-0 +15155-4 0  9999
2 13992 074.0545 335.1282 0006403 264.1573 095.8850 14.36107026819201
Epoch (UTC): 16 January 2018 22:07:55
Eccentricity: 0.0006403
inclination: 74.0545°
perigee height: 767 km
apogee height: 776 km
right ascension of ascending node: 335.1282°
argument of perigee: 264.1573°
revolutions per day: 14.36107026
mean anomaly at epoch: 95.8850°
orbit number at epoch: 81920

The dashed part of the orbit path shows where the satellite is in the earth's shadow,  

DLR